Regional Weather Roundup
Issued by NWS Sioux Falls, SD

Home | Current Version | Previous Version | Text Only | Print | Product List | Glossary Off
Versions: 1 2 3 4 5 6 7 8 9 10 11 12 13 14 15 16 17 18 19 20 21 22 23 24 25 26 27 28 29 30 31 32 33 34 35 36 37 38 39 40 41 42 43 44 45 46 47 48 49 50

000
ASUS43 KFSD 300202
RWRFSD

WEATHER ROUNDUP FOR SE SOUTH DAKOTA/SW MINNESOTA/NW IOWA
NATIONAL WEATHER SERVICE SIOUX FALLS SD
900 PM CDT WED JUL 29 2015

NOTE: "FAIR" INDICATES FEW OR NO CLOUDS BELOW 12,000 FEET WITH NO
SIGNIFICANT WEATHER AND OR OBSTRUCTIONS TO VISIBILITY.


SDZ038>040-050-052>070-300300-
SOUTHEAST SOUTH DAKOTA

CITY           SKY/WX    TMP DP  RH WIND       PRES   REMARKS
BROOKINGS      CLEAR     72  55  56 W5        30.09R
CHAMBERLAIN    NOT AVBL
HURON          CLEAR     73  61  65 CALM      30.06R
MADISON        FAIR      72  57  60 SW3       30.09S
MITCHELL       CLEAR     77  52  41 W6        30.08R
SIOUX FALLS    PTCLDY    73  61  65 CALM      30.08S
WINNER         FAIR      80  48  32 CALM      30.13R
YANKTON        CLEAR     79  55  44 SW7       30.08S
$$

MNZ071-072-080-081-089-090-097-098-300300-
SOUTHWEST MINNESOTA

CITY           SKY/WX    TMP DP  RH WIND       PRES   REMARKS
FAIRMONT       CLEAR     72  54  53 W8        30.05S
JACKSON        CLEAR     70  59  68 W5        30.08R
LUVERNE        CLEAR     70  63  78 W6        30.09R
MARSHALL       CLEAR     70  57  64 NW6       30.05S
MONTEVIDEO     CLEAR     72  52  49 CALM      30.03R
PIPESTONE      CLEAR     70  61  73 W3        30.09R
REDWOOD FALLS  CLEAR     74  56  53 W9        30.01S
TRACY          CLEAR     70  59  68 W7        30.05S
WINDOM         CLEAR     70  61  73 CALM      30.06S
WORTHINGTON    CLEAR     68  57  68 W8        30.08S
$$

IAZ001>003-012>014-020>022-031-032-NEZ013-014-SDZ071-300300-
NORTHWEST IOWA

CITY           SKY/WX    TMP DP  RH WIND       PRES   REMARKS
DENISON        CLEAR     72  61  68 SW5       30.10S HAZE
ESTHERVILLE    CLEAR     67  61  81 SW6       30.07R
SIOUX CITY     CLEAR     72  65  78 SW5       30.10S
SPENCER        CLEAR     69  60  73 W7        30.08S
$$

ABBREVIATIONS USED IN REMARKS
   TC - TEMPERATURE IN CELSIUS
  WCI - WIND CHILL INDEX
   HX - HEAT INDEX
  VSB - VISIBILITY




USA.gov is the U.S. government's official web portal to all federal, state and local government web resources and services.